Location: LDNL
(36.4545°S, 141.6685°E)
Time: 04:19:59
(UTC+11:00)

Vanguard 2 - Pass Details

Date: 14 August 2022
Orbit: 552 x 2934 km, 32.9° (Epoch: 06 October)

Event Time Altitude Azimuth Distance (km) Brightness Sun altitude
Rises 17:34:00 0° 291° (WNW) 6,787 15.8 3.9°
Reaches altitude 10° 17:38:39 10° 293° (WNW) 5,730 14.7 3.0°
Maximum altitude 17:55:47 70° 12° (NNE) 2,491 10.2 -0.2°
Drops below altitude 10° 18:07:17 10° 92° (E) 4,030 10.6 -2.4°
Enters shadow 18:09:23 - 94° (E) 4,587 10.8 -2.8°
Sets 18:09:58 0° 94° (E) 4,747 - -3.0°
